#timestamp,LO_Frequency,Hit,StdDev 
1561716015.8,286046999.1,N
1561716035.6,286046998.7,N
1561716055.4,286046999.0,N
1561716075.3,286046998.2,N
1561716095.1,286047001.2,N
1561716115.9,286047000.4,N
1561716135.7,286047002.7,N
1561716155.5,286047000.7,N
1561716175.4,286047000.6,N
1561716195.2,286046998.6,N
1561716215.1,286047001.0,N
1561716216.0,286047001.0,N
1561716235.8,286046998.3,N
1561716255.6,286046998.9,N
1561716275.5,286046994.9,N
1561716295.3,286046996.8,N
1561716315.1,286046999.5,N
1561716335.9,286046997.2,N
1561716355.7,286046996.0,N
1561716375.6,286046994.3,N
1561716395.4,286046994.1,N
1561716415.2,286046986.3,Y
1561716435.1,286046995.9,P
1561716436.0,286046995.9,N
1561716455.8,286046995.9,P
1561716475.7,286046997.7,N
1561716495.5,286046999.2,N
1561716515.3,286046995.5,Y
1561716535.2,286046999.5,P
1561716555.0,286047001.1,N
1561716555.9,286047001.1,N
1561716575.7,286046998.3,N
1561716595.6,286047002.7,N
1561716615.4,286047003.6,N
1561716635.3,286047005.9,N
1561716655.1,286047005.3,N
1561716656.0,286047005.3,N
1561716675.8,286047005.1,N
1561716695.7,286047004.7,N
1561716715.5,286047006.7,N
1561716735.3,286047007.1,N
1561716755.2,286047006.0,N
1561716775.0,286047003.5,N
1561716775.9,286047003.5,N
1561716795.8,286047004.0,N
1561716815.6,286047001.5,N
1561716835.4,286047002.0,N
1561716855.3,286047004.1,N
1561716875.1,286047002.3,N
1561716876.0,286047002.3,N
1561716895.8,286047002.6,N
1561716915.7,286047002.7,N
1561716935.5,286047002.6,N
1561716955.3,286047002.6,N
1561716975.2,286047001.6,N
1561716995.0,286047001.7,N
1561716995.9,286047001.7,N
1561717015.8,286047004.3,N
1561717035.6,286047004.2,N
1561717055.4,286047001.3,N
1561717075.3,286047002.5,N
1561717095.1,286047001.6,N
1561717115.8,286047002.8,N
1561717135.7,286047002.0,N
1561717155.5,286047001.4,N
1561717175.4,286047002.5,N
1561717195.2,286046999.7,N
1561717215.0,286047002.4,N
1561717215.9,286047002.4,N
1561717235.8,286047001.9,N
1561717255.6,286047001.3,N
1561717275.4,286047001.5,N
1561717295.3,286047001.3,N
1561717315.1,286047001.4,N
1561717335.9,286047001.6,N
1561717355.7,286047000.4,N
1561717375.5,286047000.3,N
1561717395.4,286047002.8,N
1561717415.2,286047004.0,Y
1561717435.0,286046999.7,P
1561717435.9,286046999.7,N
1561717455.8,286047001.6,N
1561717475.6,286047002.3,N
1561717495.5,286047000.1,N
1561717515.3,286047001.1,N
1561717535.1,286046998.7,N
1561717555.9,286046997.4,N
1561717575.7,286046997.6,N
1561717595.5,286046996.0,N
1561717615.4,286046993.5,Y
1561717635.2,286046994.0,P
1561717655.0,286046993.0,N
1561717655.9,286046993.0,N
1561717675.8,286046992.3,N
1561717695.6,286046992.5,N
1561717715.5,286046994.0,N
1561717735.3,286046995.0,N
1561717755.1,286046997.9,N
1561717775.9,286046999.6,N
1561717795.7,286046997.3,N
1561717815.5,286046999.5,N
1561717835.4,286046998.1,N
1561717855.2,286046998.7,N
1561717875.1,286046998.2,N
1561717876.0,286046998.2,N
1561717895.8,286046998.7,N
1561717915.6,286046996.7,N
1561717935.5,286046997.9,N
1561717955.3,286046997.4,N
1561717975.1,286046997.5,N
1561717995.9,286046996.7,N
1561718015.7,286046997.4,N
1561718035.5,286046993.4,N
1561718055.4,286046995.6,N
1561718075.2,286046994.1,N
1561718095.1,286046993.7,N
1561718096.0,286046993.7,N
1561718115.8,286046995.7,N
1561718135.6,286046997.6,N
1561718155.5,286046999.2,N
1561718175.3,286046994.9,N
1561718195.2,286046995.7,N
1561718215.9,286046994.7,N
1561718235.7,286046992.0,Y
1561718255.6,286046995.3,P
1561718275.4,286046995.2,P
1561718295.3,286046993.4,P
1561718315.1,286046996.3,Y
1561718316.0,286046996.3,P
1561718335.8,286046998.5,N
1561718355.7,286047001.1,N
1561718375.5,286046999.0,N
1561718395.3,286046998.5,N
1561718415.2,286047002.7,N
1561718435.0,286047001.3,N
1561718435.9,286047001.3,N
1561718455.8,286047003.5,N
1561718475.6,286047003.1,N
1561718495.4,286047001.8,N
1561718515.3,286047002.2,N
1561718535.1,286047000.2,N
1561718536.0,286047000.2,N
1561718555.8,286046999.3,N
1561718575.7,286047000.0,N
1561718595.5,286047001.7,N
1561718615.3,286047004.1,N
1561718635.2,286047003.2,N
1561718655.0,286047003.2,N
1561718655.9,286047003.2,N
1561718675.8,286047003.0,N
1561718695.6,286047005.8,N
1561718715.4,286047005.7,N
1561718735.3,286047007.5,N
1561718755.1,286047006.2,N
1561718775.8,286047008.4,N
1561718795.7,286047009.0,N
1561718815.5,286047006.2,N
1561718835.4,286047005.2,N
1561718855.2,286047005.8,N
1561718875.0,286047003.4,N
1561718875.9,286047003.4,N
1561718895.8,286047003.3,N
1561718915.6,286047005.4,N
1561718935.5,286047005.3,N
1561718955.3,286047007.0,N
1561718975.1,286047008.7,Y
1561718995.9,286047005.4,P
1561719015.7,286047004.5,P
1561719035.5,286047006.8,P
1561719055.4,286047004.6,Y
1561719075.2,286047001.1,P
1561719095.1,286046998.3,N
1561719096.0,286046998.3,N
1561719115.8,286046999.2,N
1561719135.6,286046996.6,N
1561719155.5,286046997.1,N
1561719175.3,286046997.9,N
1561719195.1,286046995.6,N
1561719215.9,286046997.2,N
1561719235.7,286046999.5,N
1561719255.6,286046999.3,N
1561719275.4,286046999.4,N
1561719295.2,286046999.6,N
1561719315.1,286046999.6,N
1561719316.0,286046999.6,N
1561719335.8,286046999.3,N
1561719355.6,286046999.4,N
1561719375.5,286046997.1,N
1561719395.3,286046999.5,N
1561719415.2,286046997.8,N
1561719435.9,286046995.5,N
1561719455.7,286046993.5,Y
1561719475.6,286046996.8,P
1561719495.4,286046998.8,N
1561719515.2,286046999.0,N
1561719535.1,286047000.7,N
1561719536.0,286047000.7,N
1561719555.8,286046999.7,N
1561719575.6,286047000.6,N
1561719595.5,286046999.8,N
